Simultaneous Nadir Overpasses (SNOs) Predictions

Prediction of SNOs between LANDSAT-8 and METOP-B Satellite Orbit:

Table of predicted SNOs for the next 14.0 days since TLE Epoch: 11/3/2018
Index Date (LANDSAT-8) Time (LANDSAT-8) Lat,Lon (LANDSAT-8) SZA (LANDSAT-8 ) Date (METOP-B) Time (METOP-B) Lat,Lon (METOP-B) SZA (METOP-B ) Distance(km) Time Diff (sec)
1 11/04/2018 14:50:10 -81.08, 176.76 81.12 11/04/2018 14:49:04 -81.09, 176.75 81.15 0.24 66
2 11/04/2018 15:39:35 81.12, -15.12 98.97 11/04/2018 15:39:43 81.11, -15.22 98.96 1.85 8
3 11/07/2018 10:24:24 -81.10,-116.58 80.25 11/07/2018 10:23:28 -81.10,-116.58 80.27 0.45 56
4 11/07/2018 11:13:50 81.11, 51.16 99.78 11/07/2018 11:14:08 81.11, 51.07 99.78 1.54 18
5 11/10/2018 05:58:40 -81.09, -50.30 79.47 11/10/2018 05:57:54 -81.09, -50.27 79.49 0.60 46
6 11/10/2018 06:48:05 81.12, 117.77 100.61 11/10/2018 06:48:33 81.11, 117.74 100.62 0.58 28
7 11/13/2018 01:32:55 -81.10, 16.30 78.69 11/13/2018 01:32:19 -81.10, 16.41 78.69 1.85 36
8 11/13/2018 02:22:20 81.13,-175.65 101.39 11/13/2018 02:22:58 81.12,-175.58 101.41 1.16 38
9 11/15/2018 21:07:09 -81.11, 82.87 77.95 11/15/2018 21:06:44 -81.10, 82.72 77.99 2.85 25




NCC Satellite Simultaneous Nadir Overpasses (SNOs) Prediction Service
